Location: Bittkow
(50.3000°N, 19.0000°E)
Time: 12:45:46
(UTC+00:00)

Meteor 1-5 Rocket - Pass Details

Date: 19 September 2020
Orbit: 789 x 915 km, 81.2° (Epoch: 21 October)

Event Time Altitude Azimuth Distance (km) Brightness Sun altitude
Rises 02:59:22 0° 345° (NNW) 3,298 7.3 -14.4°
Reaches altitude 10° 03:01:46 10° 342° (NNW) 2,365 6.6 -14.0°
Maximum altitude 03:06:59 60° 263° (W) 908 4.1 -13.2°
Drops below altitude 10° 03:12:14 10° 185° (S) 2,381 6.3 -12.4°
Sets 03:14:39 0° 181° (S) 3,323 7.1 -12.0°
